Time,TemperatureF,DewpointF,PressureIn,WindDirection,WindDirectionDegrees,WindSpeedMPH,WindSpeedGustMPH,Humidity,HourlyPrecipIn,Conditions,Clouds,dailyrainin,SoftwareType,DateUTC
2013-04-28 00:01:00,54.7,53.6,30.07,ESE,121,3.0,3.0,96,0.04,,,0.01,Wunderground v.1.15,2013-04-28 04:01:00,
2013-04-28 00:02:00,54.7,53.6,30.07,SE,129,3.0,3.0,96,0.04,,,0.01,Wunderground v.1.15,2013-04-28 04:02:00,
2013-04-28 00:03:00,54.7,53.6,30.07,ESE,122,3.0,3.0,96,0.04,,,0.01,Wunderground v.1.15,2013-04-28 04:03:00,
2013-04-28 00:09:00,54.7,53.6,30.08,ESE,117,3.0,4.0,96,0.09,,,0.02,Wunderground v.1.15,2013-04-28 04:09:00,
2013-04-28 00:15:00,54.7,53.6,30.07,ESE,108,3.0,4.0,96,0.10,,,0.03,Wunderground v.1.15,2013-04-28 04:15:00,
2013-04-28 00:20:00,54.7,53.6,30.07,SE,141,3.0,3.0,96,0.14,,,0.04,Wunderground v.1.15,2013-04-28 04:20:00,
2013-04-28 00:26:00,54.7,53.6,30.07,SE,129,3.0,6.0,96,0.13,,,0.06,Wunderground v.1.15,2013-04-28 04:26:00,
2013-04-28 00:32:00,54.7,53.6,30.07,ESE,106,4.0,4.0,96,0.29,,,0.07,Wunderground v.1.15,2013-04-28 04:32:00,
2013-04-28 00:38:00,54.6,53.5,30.06,SE,125,4.0,7.0,96,0.16,,,0.09,Wunderground v.1.15,2013-04-28 04:38:00,
2013-04-28 00:43:00,54.6,53.5,30.06,East,100,4.0,4.0,96,0.11,,,0.10,Wunderground v.1.15,2013-04-28 04:43:00,
2013-04-28 00:49:00,54.6,53.5,30.06,SE,128,4.0,4.0,96,0.06,,,0.11,Wunderground v.1.15,2013-04-28 04:49:00,
2013-04-28 00:55:00,54.6,53.5,30.05,ESE,114,4.0,5.0,96,0.06,,,0.11,Wunderground v.1.15,2013-04-28 04:55:00,
2013-04-28 01:01:00,54.6,53.5,30.05,ESE,107,3.0,3.0,96,0.05,,,0.11,Wunderground v.1.15,2013-04-28 05:01:00,
2013-04-28 01:06:00,54.6,53.5,30.05,ESE,118,3.0,6.0,96,0.00,,,0.11,Wunderground v.1.15,2013-04-28 05:06:00,
2013-04-28 01:12:00,54.5,53.4,30.05,SSE,158,3.0,4.0,96,0.00,,,0.11,Wunderground v.1.15,2013-04-28 05:12:00,
2013-04-28 01:18:00,54.6,53.5,30.04,SSE,153,4.0,6.0,96,0.00,,,0.11,Wunderground v.1.15,2013-04-28 05:18:00,
2013-04-28 01:24:00,54.6,53.5,30.04,ESE,108,5.0,6.0,96,0.00,,,0.11,Wunderground v.1.15,2013-04-28 05:24:00,
2013-04-28 01:30:00,54.6,53.5,30.04,SE,141,5.0,6.0,96,0.00,,,0.11,Wunderground v.1.15,2013-04-28 05:30:00,
2013-04-28 01:36:00,54.7,53.6,30.04,SSE,148,4.0,6.0,96,0.00,,,0.11,Wunderground v.1.15,2013-04-28 05:36:00,
2013-04-28 01:41:00,54.7,53.6,30.04,SSE,158,4.0,4.0,96,0.00,,,0.11,Wunderground v.1.15,2013-04-28 05:41:00,
2013-04-28 01:46:00,54.7,53.6,30.04,ESE,121,4.0,5.0,96,0.00,,,0.11,Wunderground v.1.15,2013-04-28 05:46:00,
2013-04-28 01:52:00,54.6,53.5,30.04,ESE,115,4.0,4.0,96,0.00,,,0.12,Wunderground v.1.15,2013-04-28 05:52:00,
2013-04-28 01:57:00,54.7,53.6,30.04,SE,146,4.0,4.0,96,0.00,,,0.12,Wunderground v.1.15,2013-04-28 05:57:00,
2013-04-28 02:03:00,54.7,53.6,30.04,South,172,3.0,3.0,96,0.06,,,0.13,Wunderground v.1.15,2013-04-28 06:03:00,
2013-04-28 02:09:00,54.7,53.6,30.04,SSE,150,3.0,7.0,96,0.19,,,0.15,Wunderground v.1.15,2013-04-28 06:09:00,
2013-04-28 02:15:00,54.7,53.6,30.03,SE,142,4.0,6.0,96,0.20,,,0.17,Wunderground v.1.15,2013-04-28 06:15:00,
2013-04-28 02:20:00,54.8,53.7,30.03,SSE,158,4.0,4.0,96,0.16,,,0.18,Wunderground v.1.15,2013-04-28 06:20:00,
2013-04-28 02:26:00,54.7,53.6,30.03,SE,132,3.0,4.0,96,0.13,,,0.19,Wunderground v.1.15,2013-04-28 06:26:00,
2013-04-28 02:32:00,54.7,53.6,30.02,SE,144,4.0,6.0,96,0.20,,,0.21,Wunderground v.1.15,2013-04-28 06:32:00,
2013-04-28 02:38:00,54.7,53.6,30.01,ESE,111,4.0,6.0,96,0.21,,,0.23,Wunderground v.1.15,2013-04-28 06:38:00,
2013-04-28 02:44:00,54.6,53.8,30.01,SSE,153,4.0,6.0,97,0.14,,,0.24,Wunderground v.1.15,2013-04-28 06:44:00,
2013-04-28 02:50:00,54.6,53.8,30.00,SE,139,4.0,4.0,97,0.14,,,0.26,Wunderground v.1.15,2013-04-28 06:50:00,
2013-04-28 02:56:00,54.6,53.8,29.99,ESE,110,4.0,6.0,97,0.15,,,0.27,Wunderground v.1.15,2013-04-28 06:56:00,
2013-04-28 03:01:00,54.6,53.8,29.99,SSE,147,4.0,4.0,97,0.15,,,0.29,Wunderground v.1.15,2013-04-28 07:01:00,
2013-04-28 03:06:00,54.5,53.7,29.98,SW,232,3.0,4.0,97,0.14,,,0.30,Wunderground v.1.15,2013-04-28 07:06:00,
2013-04-28 03:12:00,54.5,53.7,29.98,SSE,148,3.0,6.0,97,0.19,,,0.32,Wunderground v.1.15,2013-04-28 07:12:00,
2013-04-28 03:18:00,54.5,53.7,29.97,East,96,3.0,6.0,97,0.13,,,0.33,Wunderground v.1.15,2013-04-28 07:18:00,
2013-04-28 03:24:00,54.6,53.8,29.97,SSE,148,4.0,6.0,97,0.08,,,0.33,Wunderground v.1.15,2013-04-28 07:24:00,
2013-04-28 03:29:00,54.6,53.8,29.96,SE,144,5.0,7.0,97,0.07,,,0.34,Wunderground v.1.15,2013-04-28 07:29:00,
2013-04-28 03:35:00,54.6,53.8,29.96,SSE,152,4.0,5.0,97,0.08,,,0.35,Wunderground v.1.15,2013-04-28 07:35:00,
2013-04-28 03:41:00,54.7,53.9,29.97,SE,146,3.0,5.0,97,0.09,,,0.36,Wunderground v.1.15,2013-04-28 07:41:00,
2013-04-28 03:46:00,54.8,54.0,29.98,SSE,150,2.0,5.0,97,0.09,,,0.37,Wunderground v.1.15,2013-04-28 07:46:00,
2013-04-28 03:52:00,54.9,54.1,29.97,SE,139,2.0,3.0,97,0.08,,,0.37,Wunderground v.1.15,2013-04-28 07:52:00,
2013-04-28 03:58:00,55.0,54.2,29.97,SSE,156,4.0,9.0,97,0.08,,,0.38,Wunderground v.1.15,2013-04-28 07:58:00,
2013-04-28 04:03:00,55.1,54.0,29.97,SSE,150,5.0,10.0,96,0.06,,,0.39,Wunderground v.1.15,2013-04-28 08:03:00,
2013-04-28 04:09:00,55.1,54.0,29.96,SSE,153,4.0,10.0,96,0.06,,,0.39,Wunderground v.1.15,2013-04-28 08:09:00,
2013-04-28 04:15:00,55.1,54.0,29.96,SSE,150,3.0,8.0,96,0.05,,,0.39,Wunderground v.1.15,2013-04-28 08:15:00,
2013-04-28 04:20:00,55.1,53.7,29.94,SSE,153,5.0,7.0,95,0.00,,,0.39,Wunderground v.1.15,2013-04-28 08:20:00,
2013-04-28 04:26:00,55.1,53.7,29.94,SE,145,6.0,9.0,95,0.00,,,0.39,Wunderground v.1.15,2013-04-28 08:26:00,
2013-04-28 04:32:00,55.1,53.7,29.94,SSE,158,5.0,6.0,95,0.00,,,0.39,Wunderground v.1.15,2013-04-28 08:32:00,
2013-04-28 04:37:00,55.1,53.7,29.95,SSE,160,4.0,7.0,95,0.00,,,0.39,Wunderground v.1.15,2013-04-28 08:37:00,
2013-04-28 04:43:00,55.1,53.7,29.95,SE,136,3.0,4.0,95,0.00,,,0.39,Wunderground v.1.15,2013-04-28 08:43:00,
2013-04-28 04:49:00,55.1,53.7,29.95,SSW,212,2.0,4.0,95,0.00,,,0.39,Wunderground v.1.15,2013-04-28 08:49:00,
2013-04-28 04:54:00,55.1,53.7,29.95,SSE,162,2.0,3.0,95,0.00,,,0.39,Wunderground v.1.15,2013-04-28 08:54:00,
2013-04-28 05:00:00,55.2,53.8,29.95,SSW,203,2.0,2.0,95,0.00,,,0.39,Wunderground v.1.15,2013-04-28 09:00:00,
2013-04-28 05:06:00,55.1,53.7,29.98,WSW,252,1.0,3.0,95,0.00,,,0.39,Wunderground v.1.15,2013-04-28 09:06:00,
2013-04-28 05:12:00,55.1,53.7,29.97,SW,221,2.0,2.0,95,0.00,,,0.39,Wunderground v.1.15,2013-04-28 09:12:00,
2013-04-28 05:18:00,55.1,53.7,29.97,SSW,208,2.0,5.0,95,0.00,,,0.39,Wunderground v.1.15,2013-04-28 09:18:00,
2013-04-28 05:23:00,55.1,53.7,29.96,SSW,205,3.0,4.0,95,0.00,,,0.39,Wunderground v.1.15,2013-04-28 09:23:00,
2013-04-28 05:29:00,55.1,53.7,29.95,SW,218,3.0,4.0,95,0.00,,,0.39,Wunderground v.1.15,2013-04-28 09:29:00,
2013-04-28 05:35:00,55.0,53.6,29.95,South,179,2.0,3.0,95,0.00,,,0.39,Wunderground v.1.15,2013-04-28 09:35:00,
2013-04-28 05:40:00,54.9,53.5,29.95,SE,143,2.0,2.0,95,0.00,,,0.39,Wunderground v.1.15,2013-04-28 09:40:00,
2013-04-28 05:46:00,54.9,53.5,29.95,South,191,2.0,2.0,95,0.00,,,0.39,Wunderground v.1.15,2013-04-28 09:46:00,
2013-04-28 05:52:00,54.7,53.3,29.94,SSW,192,2.0,3.0,95,0.00,,,0.39,Wunderground v.1.15,2013-04-28 09:52:00,
2013-04-28 05:58:00,54.6,53.2,29.94,South,184,2.0,3.0,95,0.00,,,0.39,Wunderground v.1.15,2013-04-28 09:58:00,
2013-04-28 06:04:00,54.5,53.1,29.94,SSW,204,2.0,3.0,95,0.00,,,0.39,Wunderground v.1.15,2013-04-28 10:04:00,
2013-04-28 06:09:00,54.4,53.0,29.94,SSE,156,3.0,4.0,95,0.00,,,0.39,Wunderground v.1.15,2013-04-28 10:09:00,
2013-04-28 06:15:00,54.2,52.8,29.94,SSE,159,1.0,2.0,95,0.00,,,0.39,Wunderground v.1.15,2013-04-28 10:15:00,
2013-04-28 06:21:00,54.0,52.9,29.94,SSE,155,1.0,3.0,96,0.00,,,0.39,Wunderground v.1.15,2013-04-28 10:21:00,
2013-04-28 06:27:00,53.9,52.8,29.94,East,100,2.0,3.0,96,0.00,,,0.39,Wunderground v.1.15,2013-04-28 10:27:00,
2013-04-28 06:32:00,53.8,52.7,29.93,SE,128,2.0,2.0,96,0.00,,,0.39,Wunderground v.1.15,2013-04-28 10:32:00,
2013-04-28 06:38:00,53.8,52.7,29.93,ESE,121,2.0,3.0,96,0.00,,,0.39,Wunderground v.1.15,2013-04-28 10:38:00,
2013-04-28 06:44:00,53.8,52.7,29.93,SSE,152,2.0,4.0,96,0.00,,,0.39,Wunderground v.1.15,2013-04-28 10:44:00,
2013-04-28 06:50:00,53.8,52.7,29.93,SSE,162,3.0,3.0,96,0.00,,,0.39,Wunderground v.1.15,2013-04-28 10:50:00,
2013-04-28 06:56:00,54.0,52.9,29.92,ESE,117,3.0,4.0,96,0.00,,,0.39,Wunderground v.1.15,2013-04-28 10:56:00,
2013-04-28 07:01:00,54.1,53.0,29.92,SE,143,3.0,4.0,96,0.00,,,0.39,Wunderground v.1.15,2013-04-28 11:01:00,
2013-04-28 07:07:00,54.3,52.9,29.92,ESE,115,4.0,5.0,95,0.00,,,0.39,Wunderground v.1.15,2013-04-28 11:07:00,
2013-04-28 07:12:00,54.4,53.0,29.93,ESE,115,4.0,4.0,95,0.00,,,0.39,Wunderground v.1.15,2013-04-28 11:12:00,
2013-04-28 07:18:00,54.5,53.1,29.93,ESE,120,3.0,4.0,95,0.00,,,0.39,Wunderground v.1.15,2013-04-28 11:18:00,
2013-04-28 07:23:00,54.6,53.2,29.93,SE,124,3.0,4.0,95,0.00,,,0.39,Wunderground v.1.15,2013-04-28 11:23:00,
2013-04-28 07:29:00,54.7,53.0,29.94,SSW,194,3.0,4.0,94,0.00,,,0.39,Wunderground v.1.15,2013-04-28 11:29:00,
2013-04-28 07:35:00,54.9,53.2,29.94,SE,124,3.0,3.0,94,0.00,,,0.39,Wunderground v.1.15,2013-04-28 11:35:00,
2013-04-28 07:40:00,54.9,53.2,29.94,SSW,210,3.0,3.0,94,0.00,,,0.39,Wunderground v.1.15,2013-04-28 11:40:00,
2013-04-28 07:46:00,55.0,53.0,29.94,WSW,243,2.0,3.0,93,0.00,,,0.39,Wunderground v.1.15,2013-04-28 11:46:00,
2013-04-28 07:51:00,55.1,53.1,29.94,ESE,110,2.0,2.0,93,0.00,,,0.39,Wunderground v.1.15,2013-04-28 11:51:00,
2013-04-28 07:57:00,55.3,53.3,29.94,SSE,150,3.0,3.0,93,0.00,,,0.39,Wunderground v.1.15,2013-04-28 11:57:00,
2013-04-28 08:03:00,55.5,53.2,29.94,SSE,153,3.0,4.0,92,0.00,,,0.39,Wunderground v.1.15,2013-04-28 12:03:00,
2013-04-28 08:08:00,55.6,53.3,29.95,South,173,3.0,5.0,92,0.00,,,0.39,Wunderground v.1.15,2013-04-28 12:08:00,
2013-04-28 08:14:00,55.7,53.4,29.94,SW,224,3.0,5.0,92,0.00,,,0.39,Wunderground v.1.15,2013-04-28 12:14:00,
2013-04-28 08:20:00,55.7,53.4,29.94,SSE,150,3.0,3.0,92,0.00,,,0.39,Wunderground v.1.15,2013-04-28 12:20:00,
2013-04-28 08:26:00,55.5,53.2,29.94,SSW,207,3.0,3.0,92,0.00,,,0.39,Wunderground v.1.15,2013-04-28 12:26:00,
2013-04-28 08:31:00,55.5,53.2,29.94,South,179,2.0,4.0,92,0.00,,,0.39,Wunderground v.1.15,2013-04-28 12:31:00,
2013-04-28 08:37:00,56.4,54.1,29.93,SSE,155,3.0,7.0,92,0.00,,,0.39,Wunderground v.1.15,2013-04-28 12:37:00,
2013-04-28 08:43:00,57.5,54.6,29.93,SW,223,3.0,5.0,90,0.00,,,0.39,Wunderground v.1.15,2013-04-28 12:43:00,
2013-04-28 08:49:00,57.7,54.8,29.93,SE,141,4.0,7.0,90,0.00,,,0.39,Wunderground v.1.15,2013-04-28 12:49:00,
2013-04-28 08:55:00,57.8,54.6,29.93,South,188,4.0,6.0,89,0.00,,,0.39,Wunderground v.1.15,2013-04-28 12:55:00,
2013-04-28 09:00:00,57.7,54.5,29.94,SE,135,5.0,5.0,89,0.00,,,0.39,Wunderground v.1.15,2013-04-28 13:00:00,
2013-04-28 09:06:00,57.7,54.5,29.93,SSE,147,4.0,8.0,89,0.00,,,0.39,Wunderground v.1.15,2013-04-28 13:06:00,
2013-04-28 09:12:00,57.8,54.9,29.94,SW,235,4.0,7.0,90,0.00,,,0.39,Wunderground v.1.15,2013-04-28 13:12:00,
2013-04-28 09:18:00,57.8,54.9,29.94,SW,217,4.0,7.0,90,0.00,,,0.39,Wunderground v.1.15,2013-04-28 13:18:00,
2013-04-28 09:23:00,57.9,55.0,29.94,ESE,117,3.0,3.0,90,0.00,,,0.39,Wunderground v.1.15,2013-04-28 13:23:00,
2013-04-28 09:29:00,57.9,55.0,29.94,SSE,153,3.0,5.0,90,0.00,,,0.39,Wunderground v.1.15,2013-04-28 13:29:00,
2013-04-28 09:35:00,57.9,55.0,29.94,SE,140,3.0,5.0,90,0.00,,,0.39,Wunderground v.1.15,2013-04-28 13:35:00,
2013-04-28 09:40:00,57.9,55.0,29.94,ESE,109,3.0,3.0,90,0.00,,,0.39,Wunderground v.1.15,2013-04-28 13:40:00,
2013-04-28 09:46:00,57.9,55.0,29.93,SE,142,3.0,6.0,90,0.00,,,0.39,Wunderground v.1.15,2013-04-28 13:46:00,
2013-04-28 09:52:00,58.2,55.3,29.94,SSE,150,4.0,7.0,90,0.00,,,0.39,Wunderground v.1.15,2013-04-28 13:52:00,
2013-04-28 09:58:00,58.7,55.8,29.94,SSE,160,4.0,9.0,90,0.00,,,0.39,Wunderground v.1.15,2013-04-28 13:58:00,
2013-04-28 10:03:00,59.2,56.0,29.94,East,95,4.0,6.0,89,0.00,,,0.39,Wunderground v.1.15,2013-04-28 14:03:00,
2013-04-28 10:09:00,59.6,56.0,29.94,SE,142,4.0,7.0,88,0.00,,,0.39,Wunderground v.1.15,2013-04-28 14:09:00,
2013-04-28 10:15:00,59.9,56.0,29.95,SSE,156,4.0,9.0,87,0.00,,,0.39,Wunderground v.1.15,2013-04-28 14:15:00,
2013-04-28 10:21:00,60.2,56.0,29.95,South,176,4.0,6.0,86,0.00,,,0.39,Wunderground v.1.15,2013-04-28 14:21:00,
2013-04-28 10:27:00,60.3,56.1,29.95,SE,124,4.0,7.0,86,0.00,,,0.39,Wunderground v.1.15,2013-04-28 14:27:00,
2013-04-28 10:33:00,60.3,56.4,29.95,SSW,194,4.0,5.0,87,0.00,,,0.39,Wunderground v.1.15,2013-04-28 14:33:00,
2013-04-28 10:38:00,60.2,55.7,29.95,South,187,4.0,9.0,85,0.00,,,0.39,Wunderground v.1.15,2013-04-28 14:38:00,
2013-04-28 10:44:00,60.0,55.5,29.96,SSE,162,5.0,7.0,85,0.00,,,0.40,Wunderground v.1.15,2013-04-28 14:44:00,
2013-04-28 10:49:00,60.0,55.8,29.95,West,263,5.0,7.0,86,0.00,,,0.40,Wunderground v.1.15,2013-04-28 14:49:00,
2013-04-28 10:55:00,60.3,56.4,29.94,SW,223,4.0,5.0,87,0.00,,,0.40,Wunderground v.1.15,2013-04-28 14:55:00,
2013-04-28 11:00:00,60.6,56.4,29.94,South,183,4.0,4.0,86,0.00,,,0.40,Wunderground v.1.15,2013-04-28 15:00:00,
2013-04-28 11:06:00,60.9,56.7,29.94,SSE,159,4.0,6.0,86,0.00,,,0.40,Wunderground v.1.15,2013-04-28 15:06:00,
2013-04-28 11:11:00,61.3,57.1,29.95,SSE,150,4.0,4.0,86,0.00,,,0.40,Wunderground v.1.15,2013-04-28 15:11:00,
2013-04-28 11:17:00,61.5,56.9,29.95,South,186,4.0,8.0,85,0.00,,,0.40,Wunderground v.1.15,2013-04-28 15:17:00,
2013-04-28 11:23:00,61.7,56.5,29.95,SE,142,5.0,9.0,83,0.00,,,0.40,Wunderground v.1.15,2013-04-28 15:23:00,
2013-04-28 11:29:00,62.0,56.8,29.94,SSW,203,5.0,9.0,83,0.00,,,0.40,Wunderground v.1.15,2013-04-28 15:29:00,
2013-04-28 11:35:00,62.2,57.0,29.95,South,188,5.0,11.0,83,0.00,,,0.40,Wunderground v.1.15,2013-04-28 15:35:00,
2013-04-28 11:40:00,62.4,56.5,29.94,South,179,7.0,7.0,81,0.00,,,0.40,Wunderground v.1.15,2013-04-28 15:40:00,
2013-04-28 11:46:00,62.6,56.0,29.94,SE,134,7.0,11.0,79,0.00,,,0.40,Wunderground v.1.15,2013-04-28 15:46:00,
2013-04-28 11:52:00,62.7,56.1,29.93,South,188,6.0,6.0,79,0.00,,,0.40,Wunderground v.1.15,2013-04-28 15:52:00,
2013-04-28 11:57:00,62.9,56.6,29.94,ESE,114,5.0,7.0,80,0.00,,,0.40,Wunderground v.1.15,2013-04-28 15:57:00,
2013-04-28 12:03:00,62.9,56.3,29.94,SW,218,5.0,7.0,79,0.00,,,0.40,Wunderground v.1.15,2013-04-28 16:03:00,
2013-04-28 12:09:00,63.3,57.0,29.94,SE,129,5.0,8.0,80,0.00,,,0.40,Wunderground v.1.15,2013-04-28 16:09:00,
2013-04-28 12:15:00,64.3,57.3,29.94,SSW,195,5.0,11.0,78,0.00,,,0.40,Wunderground v.1.15,2013-04-28 16:15:00,
2013-04-28 12:20:00,64.8,57.8,29.93,South,190,6.0,6.0,78,0.00,,,0.40,Wunderground v.1.15,2013-04-28 16:20:00,
2013-04-28 12:26:00,65.7,57.2,29.93,SSE,150,6.0,10.0,74,0.00,,,0.40,Wunderground v.1.15,2013-04-28 16:26:00,
2013-04-28 12:32:00,65.4,57.3,29.93,SE,125,7.0,8.0,75,0.00,,,0.40,Wunderground v.1.15,2013-04-28 16:32:00,
2013-04-28 12:38:00,65.6,57.1,29.93,SSW,198,7.0,11.0,74,0.00,,,0.40,Wunderground v.1.15,2013-04-28 16:38:00,
2013-04-28 12:43:00,65.5,56.6,29.93,SW,228,8.0,13.0,73,0.00,,,0.40,Wunderground v.1.15,2013-04-28 16:43:00,
2013-04-28 12:49:00,65.5,57.0,29.93,ESE,123,6.0,13.0,74,0.00,,,0.40,Wunderground v.1.15,2013-04-28 16:49:00,
2013-04-28 12:55:00,65.8,57.3,29.92,SSE,155,5.0,11.0,74,0.00,,,0.40,Wunderground v.1.15,2013-04-28 16:55:00,
2013-04-28 13:00:00,65.9,57.4,29.92,South,176,5.0,7.0,74,0.00,,,0.40,Wunderground v.1.15,2013-04-28 17:00:00,
2013-04-28 13:06:00,66.3,58.1,29.92,SW,235,5.0,7.0,75,0.00,,,0.40,Wunderground v.1.15,2013-04-28 17:06:00,
2013-04-28 13:12:00,66.4,57.5,29.92,SW,225,5.0,9.0,73,0.00,,,0.40,Wunderground v.1.15,2013-04-28 17:12:00,
2013-04-28 13:17:00,66.3,57.8,29.92,SSW,195,6.0,9.0,74,0.00,,,0.40,Wunderground v.1.15,2013-04-28 17:17:00,
2013-04-28 13:23:00,66.8,58.2,29.92,South,190,5.0,7.0,74,0.00,,,0.40,Wunderground v.1.15,2013-04-28 17:23:00,
2013-04-28 13:29:00,66.8,57.9,29.92,West,263,5.0,8.0,73,0.00,,,0.40,Wunderground v.1.15,2013-04-28 17:29:00,
2013-04-28 13:35:00,66.7,58.1,29.91,South,177,5.0,6.0,74,0.00,,,0.40,Wunderground v.1.15,2013-04-28 17:35:00,
2013-04-28 13:40:00,66.8,57.9,29.91,SSW,199,4.0,6.0,73,0.00,,,0.40,Wunderground v.1.15,2013-04-28 17:40:00,
2013-04-28 13:46:00,66.4,57.5,29.91,SW,215,5.0,11.0,73,0.00,,,0.40,Wunderground v.1.15,2013-04-28 17:46:00,
2013-04-28 13:52:00,66.2,58.0,29.91,SW,236,5.0,8.0,75,0.00,,,0.40,Wunderground v.1.15,2013-04-28 17:52:00,
2013-04-28 13:57:00,66.5,58.3,29.91,South,180,5.0,9.0,75,0.00,,,0.40,Wunderground v.1.15,2013-04-28 17:57:00,
2013-04-28 14:03:00,66.7,57.8,29.90,SE,139,6.0,10.0,73,0.00,,,0.40,Wunderground v.1.15,2013-04-28 18:03:00,
2013-04-28 14:09:00,66.8,57.5,29.90,South,188,6.0,10.0,72,0.00,,,0.40,Wunderground v.1.15,2013-04-28 18:09:00,
2013-04-28 14:14:00,66.8,57.5,29.90,West,276,6.0,6.0,72,0.00,,,0.40,Wunderground v.1.15,2013-04-28 18:14:00,
2013-04-28 14:20:00,66.8,57.5,29.90,South,184,6.0,6.0,72,0.00,,,0.40,Wunderground v.1.15,2013-04-28 18:20:00,
2013-04-28 14:26:00,66.8,57.9,29.90,SSW,207,6.0,12.0,73,0.00,,,0.40,Wunderground v.1.15,2013-04-28 18:26:00,
2013-04-28 14:32:00,67.6,57.9,29.90,South,184,6.0,12.0,71,0.00,,,0.40,Wunderground v.1.15,2013-04-28 18:32:00,
2013-04-28 14:37:00,67.7,57.6,29.90,South,190,7.0,12.0,70,0.00,,,0.40,Wunderground v.1.15,2013-04-28 18:37:00,
2013-04-28 14:43:00,68.2,58.4,29.90,SSW,195,6.0,8.0,71,0.00,,,0.40,Wunderground v.1.15,2013-04-28 18:43:00,
2013-04-28 14:49:00,68.3,57.7,29.90,South,177,4.0,8.0,69,0.00,,,0.40,Wunderground v.1.15,2013-04-28 18:49:00,
2013-04-28 14:55:00,68.2,58.0,29.90,SW,214,5.0,11.0,70,0.00,,,0.40,Wunderground v.1.15,2013-04-28 18:55:00,
2013-04-28 15:00:00,68.3,57.7,29.90,SW,231,5.0,6.0,69,0.00,,,0.40,Wunderground v.1.15,2013-04-28 19:00:00,
2013-04-28 15:06:00,68.3,57.7,29.90,South,181,6.0,10.0,69,0.00,,,0.40,Wunderground v.1.15,2013-04-28 19:06:00,
2013-04-28 15:12:00,68.5,59.1,29.89,South,188,5.0,6.0,72,0.00,,,0.40,Wunderground v.1.15,2013-04-28 19:12:00,
2013-04-28 15:18:00,68.6,58.4,29.89,South,184,4.0,11.0,70,0.00,,,0.40,Wunderground v.1.15,2013-04-28 19:18:00,
2013-04-28 15:23:00,68.7,58.5,29.88,SE,138,5.0,7.0,70,0.00,,,0.40,Wunderground v.1.15,2013-04-28 19:23:00,
2013-04-28 15:29:00,68.6,58.4,29.88,SE,138,5.0,9.0,70,0.00,,,0.40,Wunderground v.1.15,2013-04-28 19:29:00,
2013-04-28 15:35:00,68.9,58.3,29.88,SE,131,6.0,9.0,69,0.00,,,0.40,Wunderground v.1.15,2013-04-28 19:35:00,
2013-04-28 15:41:00,69.0,58.8,29.88,SSW,200,6.0,7.0,70,0.00,,,0.40,Wunderground v.1.15,2013-04-28 19:41:00,
2013-04-28 15:46:00,68.6,58.0,29.88,SSW,212,6.0,10.0,69,0.00,,,0.40,Wunderground v.1.15,2013-04-28 19:46:00,
2013-04-28 15:52:00,68.3,57.7,29.88,SSW,206,7.0,8.0,69,0.00,,,0.40,Wunderground v.1.15,2013-04-28 19:52:00,
2013-04-28 15:58:00,67.9,57.8,29.88,ESE,114,7.0,12.0,70,0.00,,,0.40,Wunderground v.1.15,2013-04-28 19:58:00,
2013-04-28 16:03:00,67.6,57.5,29.87,SE,142,7.0,8.0,70,0.00,,,0.40,Wunderground v.1.15,2013-04-28 20:03:00,
2013-04-28 16:09:00,67.4,57.3,29.87,South,187,7.0,14.0,70,0.00,,,0.40,Wunderground v.1.15,2013-04-28 20:09:00,
2013-04-28 16:15:00,67.2,57.5,29.87,South,187,7.0,9.0,71,0.00,,,0.40,Wunderground v.1.15,2013-04-28 20:15:00,
2013-04-28 16:21:00,66.6,56.9,29.87,South,172,7.0,9.0,71,0.00,,,0.40,Wunderground v.1.15,2013-04-28 20:21:00,
2013-04-28 16:26:00,66.4,57.1,29.87,SSE,158,6.0,9.0,72,0.00,,,0.40,Wunderground v.1.15,2013-04-28 20:26:00,
2013-04-28 16:32:00,66.3,57.4,29.86,WSW,238,5.0,7.0,73,0.00,,,0.40,Wunderground v.1.15,2013-04-28 20:32:00,
2013-04-28 16:38:00,66.2,56.9,29.86,SW,214,6.0,12.0,72,0.00,,,0.40,Wunderground v.1.15,2013-04-28 20:38:00,
2013-04-28 16:43:00,66.2,56.9,29.86,SSW,198,6.0,9.0,72,0.00,,,0.40,Wunderground v.1.15,2013-04-28 20:43:00,
2013-04-28 16:49:00,66.2,57.3,29.86,South,176,5.0,9.0,73,0.00,,,0.40,Wunderground v.1.15,2013-04-28 20:49:00,
2013-04-28 16:55:00,66.3,57.4,29.86,West,259,5.0,6.0,73,0.00,,,0.40,Wunderground v.1.15,2013-04-28 20:55:00,
2013-04-28 17:00:00,66.2,57.3,29.86,SSE,160,5.0,5.0,73,0.00,,,0.40,Wunderground v.1.15,2013-04-28 21:00:00,
2013-04-28 17:06:00,66.0,56.7,29.86,SE,134,6.0,8.0,72,0.00,,,0.40,Wunderground v.1.15,2013-04-28 21:06:00,
2013-04-28 17:12:00,65.7,56.4,29.86,SSW,194,6.0,7.0,72,0.00,,,0.40,Wunderground v.1.15,2013-04-28 21:12:00,
2013-04-28 17:18:00,65.6,57.1,29.86,SW,232,5.0,8.0,74,0.00,,,0.40,Wunderground v.1.15,2013-04-28 21:18:00,
2013-04-28 17:24:00,65.7,56.8,29.86,South,175,5.0,8.0,73,0.00,,,0.40,Wunderground v.1.15,2013-04-28 21:24:00,
2013-04-28 17:30:00,66.1,57.2,29.86,South,184,5.0,5.0,73,0.00,,,0.40,Wunderground v.1.15,2013-04-28 21:30:00,
2013-04-28 17:35:00,66.1,56.4,29.86,SE,142,6.0,9.0,71,0.00,,,0.40,Wunderground v.1.15,2013-04-28 21:35:00,
2013-04-28 17:41:00,66.0,57.1,29.86,SSW,197,5.0,8.0,73,0.00,,,0.40,Wunderground v.1.15,2013-04-28 21:41:00,
2013-04-28 17:46:00,66.0,57.1,29.86,South,188,4.0,8.0,73,0.00,,,0.40,Wunderground v.1.15,2013-04-28 21:46:00,
2013-04-28 17:52:00,65.8,56.5,29.86,SSW,210,5.0,5.0,72,0.00,,,0.40,Wunderground v.1.15,2013-04-28 21:52:00,
2013-04-28 17:58:00,65.6,56.7,29.86,SE,143,6.0,11.0,73,0.00,,,0.40,Wunderground v.1.15,2013-04-28 21:58:00,
2013-04-28 18:03:00,65.4,56.5,29.86,SW,221,6.0,10.0,73,0.00,,,0.40,Wunderground v.1.15,2013-04-28 22:03:00,
2013-04-28 18:09:00,65.2,56.7,29.87,SSW,208,6.0,10.0,74,0.00,,,0.40,Wunderground v.1.15,2013-04-28 22:09:00,
2013-04-28 18:15:00,64.9,56.4,29.86,South,187,6.0,8.0,74,0.00,,,0.40,Wunderground v.1.15,2013-04-28 22:15:00,
2013-04-28 18:21:00,64.8,56.3,29.86,SE,129,5.0,9.0,74,0.00,,,0.40,Wunderground v.1.15,2013-04-28 22:21:00,
2013-04-28 18:27:00,64.8,56.3,29.87,SSW,197,5.0,9.0,74,0.00,,,0.40,Wunderground v.1.15,2013-04-28 22:27:00,
2013-04-28 18:32:00,64.7,55.8,29.87,SSW,198,6.0,8.0,73,0.00,,,0.40,Wunderground v.1.15,2013-04-28 22:32:00,
2013-04-28 18:38:00,64.7,56.2,29.87,SW,221,6.0,10.0,74,0.00,,,0.40,Wunderground v.1.15,2013-04-28 22:38:00,
2013-04-28 18:43:00,64.8,56.3,29.87,SSW,205,5.0,9.0,74,0.00,,,0.40,Wunderground v.1.15,2013-04-28 22:43:00,
2013-04-28 18:49:00,64.8,56.3,29.87,SE,126,4.0,9.0,74,0.00,,,0.40,Wunderground v.1.15,2013-04-28 22:49:00,
2013-04-28 18:55:00,64.7,56.2,29.87,SW,221,4.0,6.0,74,0.00,,,0.40,Wunderground v.1.15,2013-04-28 22:55:00,
2013-04-28 19:00:00,64.7,56.2,29.87,ESE,120,4.0,4.0,74,0.00,,,0.40,Wunderground v.1.15,2013-04-28 23:00:00,
2013-04-28 19:07:00,64.8,56.7,29.87,SSW,198,3.0,4.0,75,0.00,,,0.40,Wunderground v.1.15,2013-04-28 23:07:00,
2013-04-28 19:13:00,64.5,56.8,29.86,SW,227,3.0,4.0,76,0.00,,,0.40,Wunderground v.1.15,2013-04-28 23:13:00,
2013-04-28 19:19:00,64.3,56.2,29.86,SSW,194,4.0,7.0,75,0.00,,,0.40,Wunderground v.1.15,2013-04-28 23:19:00,
2013-04-28 19:24:00,64.1,56.4,29.86,South,170,4.0,7.0,76,0.00,,,0.40,Wunderground v.1.15,2013-04-28 23:24:00,
2013-04-28 19:30:00,64.0,56.3,29.86,SSE,159,4.0,4.0,76,0.00,,,0.40,Wunderground v.1.15,2013-04-28 23:30:00,
2013-04-28 19:36:00,63.7,56.0,29.87,SE,124,3.0,6.0,76,0.00,,,0.40,Wunderground v.1.15,2013-04-28 23:36:00,
2013-04-28 19:41:00,63.5,56.2,29.86,ESE,108,3.0,4.0,77,0.00,,,0.40,Wunderground v.1.15,2013-04-28 23:41:00,
2013-04-28 19:47:00,63.3,56.0,29.86,SW,226,3.0,5.0,77,0.00,,,0.40,Wunderground v.1.15,2013-04-28 23:47:00,
2013-04-28 19:53:00,63.1,56.1,29.86,South,169,3.0,4.0,78,0.00,,,0.40,Wunderground v.1.15,2013-04-28 23:53:00,
2013-04-28 19:58:00,63.0,56.0,29.86,SSW,208,3.0,4.0,78,0.00,,,0.40,Wunderground v.1.15,2013-04-28 23:58:00,
2013-04-28 20:04:00,62.9,55.9,29.86,SSW,200,3.0,7.0,78,0.00,,,0.40,Wunderground v.1.15,2013-04-29 00:04:00,
2013-04-28 20:09:00,62.9,55.9,29.86,SSW,207,3.0,7.0,78,0.00,,,0.40,Wunderground v.1.15,2013-04-29 00:09:00,
2013-04-28 20:15:00,62.8,56.2,29.87,West,262,1.0,3.0,79,0.00,,,0.40,Wunderground v.1.15,2013-04-29 00:15:00,
2013-04-28 20:21:00,62.1,57.2,29.88,WSW,243,2.0,7.0,84,0.00,,,0.41,Wunderground v.1.15,2013-04-29 00:21:00,
2013-04-28 20:26:00,60.4,57.1,29.88,West,267,4.0,7.0,89,0.20,,,0.43,Wunderground v.1.15,2013-04-29 00:26:00,
2013-04-28 20:32:00,59.4,57.1,29.89,West,270,4.0,4.0,92,0.07,,,0.43,Wunderground v.1.15,2013-04-29 00:32:00,
2013-04-28 20:37:00,59.1,56.8,29.89,West,276,3.0,5.0,92,0.04,,,0.43,Wunderground v.1.15,2013-04-29 00:37:00,
2013-04-28 20:43:00,58.8,56.8,29.89,WNW,283,1.0,2.0,93,0.00,,,0.43,Wunderground v.1.15,2013-04-29 00:43:00,
2013-04-28 20:49:00,58.7,56.7,29.89,WNW,299,1.0,3.0,93,0.00,,,0.43,Wunderground v.1.15,2013-04-29 00:49:00,
2013-04-28 20:54:00,58.6,56.6,29.89,West,265,2.0,2.0,93,0.00,,,0.43,Wunderground v.1.15,2013-04-29 00:54:00,
2013-04-28 21:00:00,58.6,56.9,29.90,West,270,1.0,1.0,94,0.00,,,0.44,Wunderground v.1.15,2013-04-29 01:00:00,
2013-04-28 21:06:00,58.4,56.7,29.90,WSW,238,2.0,5.0,94,0.12,,,0.45,Wunderground v.1.15,2013-04-29 01:06:00,
2013-04-28 21:11:00,58.3,56.3,29.90,WSW,245,2.0,4.0,93,0.07,,,0.45,Wunderground v.1.15,2013-04-29 01:11:00,
2013-04-28 21:17:00,58.1,56.1,29.91,West,271,2.0,4.0,93,0.04,,,0.45,Wunderground v.1.15,2013-04-29 01:17:00,
2013-04-28 21:23:00,58.0,56.0,29.91,SW,236,1.0,2.0,93,0.16,,,0.47,Wunderground v.1.15,2013-04-29 01:23:00,
2013-04-28 21:29:00,57.8,55.8,29.91,SW,228,0.0,2.0,93,0.21,,,0.49,Wunderground v.1.15,2013-04-29 01:29:00,
2013-04-28 21:34:00,57.7,56.0,29.91,SW,226,0.0,0.0,94,0.07,,,0.49,Wunderground v.1.15,2013-04-29 01:34:00,
2013-04-28 21:39:00,57.6,55.9,29.91,SW,221,0.0,0.0,94,0.05,,,0.49,Wunderground v.1.15,2013-04-29 01:39:00,
2013-04-28 21:45:00,57.7,56.0,29.91,SW,226,0.0,0.0,94,0.00,,,0.49,Wunderground v.1.15,2013-04-29 01:45:00,
2013-04-28 21:51:00,57.6,56.2,29.91,SSW,205,0.0,0.0,95,0.00,,,0.49,Wunderground v.1.15,2013-04-29 01:51:00,
2013-04-28 21:57:00,57.6,56.2,29.92,SSW,205,0.0,0.0,95,0.00,,,0.49,Wunderground v.1.15,2013-04-29 01:57:00,
2013-04-28 22:02:00,57.6,56.2,29.92,SSW,200,0.0,0.0,95,0.00,,,0.49,Wunderground v.1.15,2013-04-29 02:02:00,
2013-04-28 22:08:00,57.6,56.2,29.92,SW,229,0.0,0.0,95,0.00,,,0.49,Wunderground v.1.15,2013-04-29 02:08:00,
2013-04-28 22:13:00,57.5,56.1,29.92,SW,214,0.0,1.0,95,0.00,,,0.49,Wunderground v.1.15,2013-04-29 02:13:00,
2013-04-28 22:19:00,57.5,56.1,29.92,SW,232,0.0,1.0,95,0.12,,,0.51,Wunderground v.1.15,2013-04-29 02:19:00,
2013-04-28 22:25:00,57.5,56.1,29.92,SSW,208,0.0,1.0,95,0.09,,,0.51,Wunderground v.1.15,2013-04-29 02:25:00,
2013-04-28 22:30:00,57.4,56.0,29.93,SSW,198,0.0,0.0,95,0.05,,,0.51,Wunderground v.1.15,2013-04-29 02:30:00,
2013-04-28 22:36:00,57.4,56.3,29.93,SSW,201,0.0,1.0,96,0.00,,,0.51,Wunderground v.1.15,2013-04-29 02:36:00,
2013-04-28 22:42:00,57.3,56.2,29.93,SSW,203,0.0,0.0,96,0.00,,,0.51,Wunderground v.1.15,2013-04-29 02:42:00,
2013-04-28 22:47:00,57.3,56.2,29.93,SSW,203,0.0,0.0,96,0.00,,,0.51,Wunderground v.1.15,2013-04-29 02:47:00,
2013-04-28 22:53:00,57.2,56.1,29.92,SW,226,0.0,0.0,96,0.00,,,0.51,Wunderground v.1.15,2013-04-29 02:53:00,
2013-04-28 22:59:00,57.2,56.1,29.92,SW,228,0.0,0.0,96,0.00,,,0.51,Wunderground v.1.15,2013-04-29 02:59:00,
2013-04-28 23:04:00,57.1,56.0,29.92,SW,228,0.0,0.0,96,0.00,,,0.52,Wunderground v.1.15,2013-04-29 03:04:00,
2013-04-28 23:10:00,57.0,55.9,29.93,SW,228,0.0,0.0,96,0.00,,,0.52,Wunderground v.1.15,2013-04-29 03:10:00,
2013-04-28 23:16:00,57.0,55.9,29.93,SSE,150,0.0,0.0,96,0.00,,,0.52,Wunderground v.1.15,2013-04-29 03:16:00,
2013-04-28 23:22:00,56.9,55.8,29.92,SSE,155,0.0,0.0,96,0.00,,,0.52,Wunderground v.1.15,2013-04-29 03:22:00,
2013-04-28 23:28:00,56.9,55.8,29.92,SSW,205,0.0,0.0,96,0.00,,,0.52,Wunderground v.1.15,2013-04-29 03:28:00,
2013-04-28 23:33:00,56.8,56.0,29.92,SE,146,0.0,1.0,97,0.00,,,0.52,Wunderground v.1.15,2013-04-29 03:33:00,
2013-04-28 23:39:00,56.9,56.1,29.92,SSW,195,0.0,1.0,97,0.00,,,0.52,Wunderground v.1.15,2013-04-29 03:39:00,
2013-04-28 23:44:00,56.9,56.1,29.92,South,186,1.0,3.0,97,0.00,,,0.52,Wunderground v.1.15,2013-04-29 03:44:00,
2013-04-28 23:50:00,56.9,56.1,29.92,SSW,197,1.0,1.0,97,0.00,,,0.52,Wunderground v.1.15,2013-04-29 03:50:00,
2013-04-28 23:56:00,56.9,56.1,29.92,SSW,211,1.0,3.0,97,0.00,,,0.52,Wunderground v.1.15,2013-04-29 03:56:00,